Japanese version Home page |
Updated on January 10, 2025 |
|
Orbital ElementsEpoch 2024 Oct. 17.0 TT = JDT 2460600.5 T 2025 Mar. 10.30924 TT Rudenko q 1.6209020 (2000.0) P Q n 0.06540308 Peri. 42.26401 -0.25312143 -0.93993709 a 6.1010408 Node 63.58759 +0.80505938 -0.33592250 e 0.7343237 Incl. 14.81546 +0.53647827 +0.06061632 P 15.1 From 426 observations 2009 Oct. 14-2024 Oct. 22, mean residual 0".7.
|
Finding Charts
|
Magnitudes Graphm1 = 10.0 + 5 log d + 20.0 log r(t - 30)
|
The orbital elements are published on M.P.E.C. 2024-U42.
|